Location: Coffee Creek Observatory
(38.8077°N, 94.7179°W)
Time: 02:45:12
(UTC-05:00)

Amateur Radio Satellites - All Passes

Search period start: 31 May 2016 02:15
Search period end: 01 June 2016 02:15
Location: Coffee Creek Observatory, 38.8077°N, 94.7179°W

Satellite Date Start Highest point End Downlink Frequencies (MHz)
Time Altitude Azimuth
ITUPSAT 1 31 May 02:23:21 02:27:52 45° 72° (ENE) 02:32:25 437.325
DUCHIFAT 1 31 May 02:25:59 02:26:36 10° 297° (WNW) 02:27:13 145.980
BUGSAT 1 31 May 02:26:20 02:29:11 19° 293° (WNW) 02:32:02 437.445
ISS 31 May 02:37:21 02:40:16 29° 30° (NNE) 02:43:11 145.825
BEESAT 31 May 02:44:08 02:48:52 77° 75° (ENE) 02:53:38 436.000
YUBILEINY 31 May 02:50:29 02:58:26 37° 73° (ENE) 03:06:22 435.215
Oscar 19 31 May 02:54:22 02:59:33 90° 285° (WNW) 03:04:41 437.125/150
TISAT 1 31 May 03:01:42 03:03:04 11° 269° (W) 03:04:26 437.305
JAS-2 31 May 03:03:12 03:10:05 46° 292° (WNW) 03:16:14 435.910
MOZHAYETS 4 31 May 03:23:23 03:26:21 17° 66° (ENE) 03:29:21
Cosmos 2504 31 May 03:25:06 03:30:28 18° 65° (ENE) 03:35:55 435.465 / 435.565
ITAMSAT 1 31 May 03:44:22 03:49:18 41° 99° (E) 03:54:14 435.822/435.867
Cosmos 2491 31 May 03:45:08 03:53:17 44° 87° (E) 04:01:25 435.465 / 435.565
Gurwin Techsat 1B 31 May 03:47:29 03:52:48 70° 286° (WNW) 03:58:04 435.225
SWISSCUBE 31 May 03:54:18 03:57:36 19° 266° (W) 04:00:56 437.505
ITUPSAT 1 31 May 04:02:46 04:05:54 17° 267° (W) 04:09:04 437.325
AO-85 31 May 04:10:40 04:11:25 10° 104° (ESE) 04:12:10 145.980
ISS 31 May 04:13:48 04:16:40 29° 226° (SW) 04:19:32 145.825
KKS-1 31 May 04:15:10 04:19:38 86° 77° (ENE) 04:24:07 437.445
RS-15 31 May 04:19:45 04:30:33 38° 254° (WSW) 04:41:17 29.354- 29.394
AO-7 31 May 04:24:56 04:32:39 39° 99° (E) 04:40:18 29.400- 29.500
Oscar 19 31 May 04:36:46 04:38:04 11° 301° (WNW) 04:39:21 437.125/150
STARS 31 May 04:40:23 04:44:47 82° 78° (ENE) 04:49:13 437.465
YUBILEINY 31 May 04:47:07 04:55:18 46° 272° (W) 05:03:33 435.215
CUBESAT XI-V 31 May 04:58:39 05:02:05 21° 67° (ENE) 05:05:32 437.345
MOZHAYETS 4 31 May 04:58:49 05:03:09 44° 262° (W) 05:07:32
Cosmos 2504 31 May 05:16:22 05:24:58 87° 81° (E) 05:33:53 435.465 / 435.565
ITAMSAT 1 31 May 05:24:26 05:28:30 23° 295° (WNW) 05:32:34 435.822/435.867
HORYU 2 31 May 05:34:17 05:38:16 32° 98° (E) 05:42:14 437.375
Cosmos 2491 31 May 05:42:00 05:50:05 40° 286° (WNW) 05:58:15 435.465 / 435.565
AO-85 31 May 05:45:41 05:51:08 82° 120° (ESE) 05:56:32 145.980
STRAND 1 31 May 06:16:03 06:17:48 12° 60° (ENE) 06:19:34 437.568
AO-7 31 May 06:17:36 06:25:26 46° 297° (WNW) 06:33:15 29.400- 29.500
NOAA 15 31 May 06:24:02 06:27:57 21° 94° (E) 06:31:49 137.62
JUGNU 31 May 06:27:58 06:29:49 11° 177° (S) 06:31:40 437.505
CUBESAT XI-V 31 May 06:34:49 06:39:10 39° 262° (W) 06:43:35 437.345
Cubesat XI-IV 31 May 06:42:56 06:47:00 22° 94° (E) 06:51:05 437.490
HORYU 2 31 May 07:11:12 07:14:38 22° 293° (WNW) 07:18:03 437.375
Cosmos 2504 31 May 07:11:56 07:17:16 18° 281° (W) 07:22:44 435.465 / 435.565
NOAA 18 31 May 07:12:38 07:17:57 49° 100° (E) 07:23:16 137.9125
BRITE-PL 31 May 07:25:39 07:30:36 69° 101° (E) 07:35:07 437.365/2234.400
CUTE-I 31 May 07:27:01 07:32:19 58° 101° (E) 07:37:35 437.470
AO-85 31 May 07:28:38 07:32:15 18° 317° (NW) 07:35:48 145.980
GOMX 1 31 May 07:30:14 07:34:17 32° 96° (E) 07:38:06 467.674
AIST 1 31 May 07:43:01 07:46:11 20° 73° (ENE) 07:49:20
LilacSat-2 31 May 07:48:48 07:52:35 71° 284° (WNW) 07:56:21 437.200
Cosmos 2499 31 May 07:49:54 07:52:31 11° 59° (ENE) 07:55:09 435.465 / 435.565
STRAND 1 31 May 07:51:08 07:56:14 84° 256° (WSW) 08:01:23 437.568
DOVE 4 31 May 07:58:58 08:02:40 28° 95° (E) 08:06:17 437.250
NOAA 15 31 May 08:02:52 08:07:55 46° 289° (WNW) 08:12:55 137.62
PRISM 31 May 08:03:07 08:06:13 21° 67° (ENE) 08:09:20 437.425
JUGNU 31 May 08:17:08 08:17:54 10° 187° (S) 08:18:40 437.505
Cubesat XI-IV 31 May 08:22:10 08:27:15 45° 290° (WNW) 08:32:19 437.490
CANX-2 31 May 08:26:50 08:29:52 18° 93° (E) 08:32:52 2200.000
PCSat 31 May 08:28:09 08:32:11 22° 106° (ESE) 08:36:15 145.827
SRMSAT 31 May 08:29:09 08:30:53 11° 176° (S) 08:32:38 437.500
GONETS M04 31 May 08:41:25 08:49:36 43° 75° (ENE) 08:57:45
SO-50 31 May 08:52:35 08:57:13 58° 55° (NE) 09:01:41 436.795
CUTE 1.7 + AOD 2 31 May 08:52:38 08:56:29 31° 97° (E) 09:00:18 437.475
NOAA 18 31 May 08:54:10 08:58:14 22° 296° (WNW) 09:02:19 137.9125
O/OREOS (USA 219) 31 May 08:57:57 09:02:15 42° 105° (ESE) 09:06:31 437.305
AAUSAT CUBESAT 2 31 May 08:58:53 09:01:15 15° 92° (E) 09:03:36 437.432
COMPASS 1 31 May 08:59:51 09:02:54 19° 94° (E) 09:05:55 437.405
BRITE-PL 31 May 09:06:16 09:08:19 13° 299° (WNW) 09:10:18 437.365/2234.400
CUTE-I 31 May 09:08:20 09:11:52 18° 297° (WNW) 09:15:25 437.470
GOMX 1 31 May 09:08:46 09:12:09 21° 294° (WNW) 09:15:24 467.674
HO-68 31 May 09:10:00 09:17:02 54° 101° (E) 09:24:01 435.675
AIST 1 31 May 09:20:01 09:23:50 30° 270° (W) 09:27:35
AUBIESAT-1 31 May 09:35:39 09:38:57 70° 107° (ESE) 09:42:19 437.475
ZACube-1 31 May 09:36:27 09:38:37 14° 92° (E) 09:40:48 437.345
CINEMA 3 31 May 09:36:38 09:40:46 74° 284° (WNW) 09:44:55 145.822/145.860
DOVE 4 31 May 09:36:59 09:40:14 21° 292° (WNW) 09:43:23 437.250
PRISM 31 May 09:37:40 09:41:20 30° 263° (W) 09:45:02 437.425
Cosmos 2499 31 May 09:38:48 09:47:27 63° 80° (E) 09:56:14 435.465 / 435.565
M-CUBED/EXP-1 PRIME 31 May 09:46:06 09:49:20 61° 289° (WNW) 09:52:37 437.505
SEEDS 31 May 09:55:57 10:00:10 64° 285° (WNW) 10:04:23 437.485
CUBEBUG 2 31 May 09:58:22 10:02:30 56° 100° (E) 10:06:42 437.445
CANX-2 31 May 10:01:53 10:05:48 34° 288° (WNW) 10:09:41 2200.000
BEESAT 3 31 May 10:04:33 10:06:57 16° 110° (ESE) 10:09:21 437.485
PCSat 31 May 10:09:59 10:15:12 49° 303° (WNW) 10:20:29 145.827
FUNcube-1 31 May 10:10:51 10:14:39 32° 97° (E) 10:18:31 145.935
UNISAT 6 31 May 10:15:56 10:19:45 31° 71° (ENE) 10:23:31 437.425
SRMSAT 31 May 10:17:58 10:19:07 11° 187° (S) 10:20:18 437.500
UWE-3 31 May 10:18:09 10:22:21 65° 101° (E) 10:26:37 435.000/436.395/437.385
TIGRISAT 31 May 10:21:56 10:25:50 34° 71° (ENE) 10:29:42 435.000
DELFI C3 31 May 10:28:53 10:32:23 27° 96° (E) 10:35:51 145.870
CUTE 1.7 + AOD 2 31 May 10:28:53 10:32:06 21° 292° (WNW) 10:35:18 437.475
AAUSAT CUBESAT 2 31 May 10:32:56 10:36:55 42° 287° (WNW) 10:40:52 437.432
SO-50 31 May 10:34:42 10:37:09 14° 252° (WSW) 10:39:33 436.795
COMPASS 1 31 May 10:34:43 10:38:30 32° 289° (WNW) 10:42:16 437.405
GONETS M04 31 May 10:38:28 10:46:15 39° 274° (W) 10:54:03
O/OREOS (USA 219) 31 May 10:38:36 10:41:50 19° 302° (WNW) 10:45:03 437.305
HUMSAT D 31 May 10:43:48 10:46:46 19° 94° (E) 10:49:45 437.325/437.525
QB50P1 31 May 10:47:49 10:49:33 12° 64° (ENE) 10:51:18 145.935-145.965
POPSAT HIP 1 31 May 10:47:55 10:49:35 12° 64° (ENE) 10:51:15 437.405
Oscar 11 31 May 10:48:30 10:52:51 76° 284° (WNW) 10:57:11 145.826/435.025
QB50P2 31 May 10:51:03 10:53:19 14° 65° (ENE) 10:55:35 145.880/145.840
POLYITAN 1 31 May 10:53:29 10:55:48 15° 65° (ENE) 10:58:07 437.675
ANTELSAT 31 May 10:56:24 11:00:44 90° 274° (W) 11:05:02 437.575/2403.000
HO-68 31 May 10:58:24 11:04:20 29° 298° (WNW) 11:10:15 435.675
NANOSAT C BR1 31 May 11:02:40 11:05:26 17° 67° (ENE) 11:08:12 145.865
ZACube-1 31 May 11:11:04 11:15:06 46° 287° (WNW) 11:19:13 437.345
BEESAT 2 31 May 11:13:53 11:17:45 55° 118° (ESE) 11:21:39 435.950
JAS-2 31 May 11:30:37 11:34:42 16° 55° (NE) 11:38:52 435.910
CUSAT 1 31 May 11:30:45 11:37:08 53° 91° (E) 11:44:42 437.405
ESTCUBE 1 31 May 11:32:22 11:34:02 12° 91° (E) 11:35:42 437.505/2401.250
Cosmos 2499 31 May 11:32:56 11:39:56 28° 277° (W) 11:47:03 435.465 / 435.565
CUBEBUG 2 31 May 11:37:06 11:38:40 12° 295° (WNW) 11:40:15 437.445
DUCHIFAT 1 31 May 11:37:50 11:41:46 39° 72° (ENE) 11:45:41 145.980
BUGSAT 1 31 May 11:39:26 11:42:25 19° 68° (ENE) 11:45:24 437.445
BEESAT 3 31 May 11:40:36 11:44:18 39° 306° (NW) 11:48:02 437.485
FUNcube-1 31 May 11:47:36 11:50:42 20° 292° (WNW) 11:53:49 145.935
UNISAT 6 31 May 11:53:14 11:56:29 21° 265° (W) 11:59:44 437.425
UWE-3 31 May 11:57:28 11:58:17 10° 296° (WNW) 11:59:07 435.000/436.395/437.385
TIGRISAT 31 May 11:59:32 12:02:36 19° 266° (W) 12:05:39 435.000
DANDE 31 May 12:03:47 12:09:15 44° 89° (E) 12:16:12 436.750
DELFI C3 31 May 12:04:01 12:07:04 21° 291° (WNW) 12:10:06 145.870
AISAT 31 May 12:11:44 12:15:10 22° 95° (E) 12:18:34 437.250
HUMSAT D 31 May 12:18:41 12:22:27 33° 288° (WNW) 12:26:14 437.325/437.525
QB50P1 31 May 12:20:42 12:24:51 56° 260° (W) 12:29:01 145.935-145.965
POPSAT HIP 1 31 May 12:20:43 12:24:52 57° 260° (W) 12:29:02 437.405
AIST 2 31 May 12:21:59 12:24:40 17° 110° (ESE) 12:27:21 435.215
QB50P2 31 May 12:24:38 12:28:43 47° 261° (W) 12:32:48 145.880/145.840
POLYITAN 1 31 May 12:27:09 12:31:13 46° 261° (W) 12:35:17 437.675
Oscar 19 31 May 12:33:38 12:36:17 14° 61° (ENE) 12:38:56 437.125/150
NANOSAT C BR1 31 May 12:36:57 12:40:52 37° 262° (W) 12:44:48 145.865
DX 1 31 May 12:50:37 12:54:50 46° 100° (E) 12:59:00 434.975-435.025
CUBEBUG 1 31 May 12:52:21 12:56:42 64° 102° (ESE) 13:00:58 437.445
BEESAT 2 31 May 12:53:38 12:55:55 15° 315° (NW) 12:58:13 435.950
SPROUT 31 May 13:00:07 13:03:49 28° 96° (E) 13:07:29 437.525
ESTCUBE 1 31 May 13:06:43 13:11:12 60° 286° (WNW) 13:15:39 437.505/2401.250
VELOX 1 31 May 13:10:39 13:15:05 83° 285° (WNW) 13:19:29 145.980
JAS-2 31 May 13:10:53 13:18:19 74° 73° (ENE) 13:26:12 435.910
50 SAT 31 May 13:11:25 13:15:06 58° 285° (WNW) 13:18:45 437.505
CUSAT 1 31 May 13:13:43 13:19:39 30° 293° (WNW) 13:26:23 437.405
BUGSAT 1 31 May 13:13:48 13:17:34 32° 262° (W) 13:21:20 437.445
DUCHIFAT 1 31 May 13:15:05 13:17:36 15° 267° (W) 13:20:09 145.980
Gurwin Techsat 1B 31 May 13:29:15 13:33:03 20° 64° (ENE) 13:36:51 435.225
UKube-1 31 May 13:31:44 13:36:03 72° 285° (WNW) 13:40:19 .
DANDE 31 May 13:47:04 13:52:22 31° 293° (WNW) 13:58:51 436.750
AISAT 31 May 13:47:47 13:51:39 31° 290° (WNW) 13:55:30 437.250
Cosmos 2491 31 May 13:57:55 14:03:52 19° 65° (ENE) 14:09:43 435.465 / 435.565
AIST 2 31 May 13:58:55 14:02:49 40° 306° (NW) 14:06:44 435.215
Oscar 19 31 May 14:09:47 14:14:58 72° 258° (WSW) 14:20:10 437.125/150
SWISSCUBE 31 May 14:18:46 14:20:28 12° 91° (E) 14:22:09 437.505
AO-85 31 May 14:19:39 14:24:09 46° 54° (NE) 14:28:14 145.980
ITUPSAT 1 31 May 14:26:55 14:29:03 13° 91° (E) 14:31:11 437.325
DX 1 31 May 14:28:06 14:30:37 15° 295° (WNW) 14:33:06 434.975-435.025
CUBEBUG 1 31 May 14:30:58 14:32:24 11° 297° (WNW) 14:33:49 437.445
SPROUT 31 May 14:36:18 14:39:37 22° 292° (WNW) 14:42:55 437.525
TISAT 1 31 May 14:43:35 14:47:44 67° 285° (WNW) 14:51:51 437.305
BEESAT 31 May 14:46:16 14:49:56 21° 95° (E) 14:53:34 436.000
JAS-2 31 May 14:58:28 15:03:57 22° 271° (W) 15:09:41 435.910
ITAMSAT 1 31 May 15:00:59 15:06:01 56° 72° (ENE) 15:11:06 435.822/435.867
Gurwin Techsat 1B 31 May 15:07:28 15:12:36 50° 260° (W) 15:17:46 435.225
AO-7 31 May 15:22:25 15:30:14 48° 64° (ENE) 15:38:06 29.400- 29.500
YUBILEINY 31 May 15:49:47 15:57:49 44° 88° (E) 16:05:51 435.215
Cosmos 2491 31 May 15:53:00 16:01:47 84° 265° (W) 16:10:29 435.465 / 435.565
SWISSCUBE 31 May 15:53:54 15:58:41 67° 286° (WNW) 16:03:26 437.505
AO-85 31 May 16:01:23 16:04:05 16° 253° (WSW) 16:06:41 145.980
ITUPSAT 1 31 May 16:02:30 16:07:16 62° 286° (WNW) 16:12:00 437.325
Cosmos 2504 31 May 16:08:07 16:08:49 10° 74° (ENE) 16:09:30 435.465 / 435.565
KKS-1 31 May 16:08:27 16:11:28 18° 94° (E) 16:14:26 437.445
BEESAT 31 May 16:23:23 16:27:47 37° 290° (WNW) 16:32:10 436.000
RS-15 31 May 16:28:28 16:38:50 45° 108° (ESE) 16:49:41 29.354- 29.394
HORYU 2 31 May 16:31:19 16:34:57 26° 68° (ENE) 16:38:36 437.375
STARS 31 May 16:32:19 16:35:01 16° 93° (E) 16:37:44 437.465
ITAMSAT 1 31 May 16:42:40 16:45:50 16° 268° (W) 16:49:00 435.822/435.867
MOZHAYETS 4 31 May 16:54:47 16:59:16 46° 99° (E) 17:03:43
NOAA 18 31 May 17:01:58 17:03:22 11° 58° (ENE) 17:04:46 137.9125
CUTE-I 31 May 17:12:48 17:13:42 10° 58° (ENE) 17:14:36 437.470
AO-7 31 May 17:15:38 17:23:06 37° 262° (W) 17:30:39 29.400- 29.500
PCSat 31 May 17:16:53 17:20:16 16° 45° (NE) 17:23:36 145.827
NOAA 15 31 May 17:42:36 17:47:10 30° 67° (ENE) 17:51:45 137.62
KKS-1 31 May 17:44:03 17:48:09 38° 289° (WNW) 17:52:14 437.445
YUBILEINY 31 May 17:46:41 17:54:36 39° 287° (WNW) 18:02:36 435.215
Cosmos 2491 31 May 17:52:54 17:57:10 15° 284° (WNW) 18:01:26 435.465 / 435.565
Cosmos 2504 31 May 17:53:21 18:00:34 75° 94° (E) 18:08:15 435.465 / 435.565
Cubesat XI-IV 31 May 18:03:33 18:08:12 32° 68° (ENE) 18:12:52 437.490
STARS 31 May 18:07:27 18:11:33 41° 289° (WNW) 18:15:39 437.465
HORYU 2 31 May 18:07:41 18:11:25 26° 264° (W) 18:15:09 437.375
LilacSat-2 31 May 18:29:23 18:32:59 43° 74° (ENE) 18:36:36 437.200
CUBESAT XI-V 31 May 18:32:15 18:36:54 57° 100° (E) 18:41:29 437.345
MOZHAYETS 4 31 May 18:33:03 18:36:02 17° 295° (WNW) 18:39:02
BRITE-PL 31 May 18:33:27 18:39:06 70° 75° (ENE) 18:44:44 437.365/2234.400
GOMX 1 31 May 18:35:48 18:40:45 36° 71° (ENE) 18:45:34 467.674
NOAA 18 31 May 18:37:41 18:43:08 83° 76° (ENE) 18:48:37 137.9125
RS-15 31 May 18:39:52 18:50:58 55° 310° (NW) 19:02:45 29.354- 29.394
CUTE-I 31 May 18:47:34 18:52:52 83° 75° (ENE) 18:58:12 437.470
PCSat 31 May 18:58:52 19:04:19 81° 244° (WSW) 19:09:44 145.827
M-CUBED/EXP-1 PRIME 31 May 19:00:41 19:00:57 10° 61° (ENE) 19:01:12 437.505
DOVE 4 31 May 19:02:21 19:06:49 31° 70° (ENE) 19:11:07 437.250
O/OREOS (USA 219) 31 May 19:08:59 19:13:26 65° 67° (ENE) 19:17:52 437.305
ISS 31 May 19:16:57 19:18:58 15° 130° (SE) 19:21:00 145.825
CANX-2 31 May 19:20:02 19:21:34 12° 64° (ENE) 19:23:06 2200.000
NOAA 15 31 May 19:22:07 19:26:50 32° 263° (W) 19:31:35 137.62
BEESAT 2 31 May 19:33:30 19:36:44 23° 50° (NE) 19:39:56 435.950
HO-68 31 May 19:37:31 19:43:50 36° 64° (ENE) 19:50:10 435.675
Cubesat XI-IV 31 May 19:43:36 19:48:13 30° 264° (W) 19:52:52 437.490
CUTE 1.7 + AOD 2 31 May 19:44:41 19:47:43 20° 68° (ENE) 19:50:46 437.475
Cosmos 2504 31 May 19:49:58 19:54:52 19° 295° (WNW) 19:59:59 435.465 / 435.565
COMPASS 1 31 May 19:51:09 19:52:33 12° 64° (ENE) 19:53:58 437.405
BEESAT 3 31 May 19:58:43 20:02:41 74° 58° (ENE) 20:06:36 437.485
PHONESAT 2.4 31 May 19:59:27 20:01:46 19° 149° (SSE) 20:04:06 2401.200-2431.200
STRAND 1 31 May 20:03:08 20:07:54 37° 98° (E) 20:12:38 437.568
LilacSat-2 31 May 20:06:19 20:07:31 11° 269° (W) 20:08:42 437.200
CUBESAT XI-V 31 May 20:11:13 20:13:46 15° 296° (WNW) 20:16:19 437.345
AIST 1 31 May 20:12:27 20:14:20 13° 85° (E) 20:16:15
GOMX 1 31 May 20:14:08 20:18:47 28° 265° (W) 20:23:21 467.674
BRITE-PL 31 May 20:14:43 20:17:59 15° 270° (W) 20:21:15 437.365/2234.400
AUBIESAT-1 31 May 20:20:15 20:24:16 75° 71° (ENE) 20:28:00 437.475
NOAA 18 31 May 20:22:49 20:24:24 11° 270° (W) 20:26:00 137.9125
M-CUBED/EXP-1 PRIME 31 May 20:31:03 20:35:08 64° 254° (WSW) 20:38:54 437.505
CUTE-I 31 May 20:32:17 20:33:31 11° 271° (W) 20:34:45 437.470
CINEMA 3 31 May 20:36:20 20:41:02 84° 77° (ENE) 20:45:31 145.822/145.860
DOVE 4 31 May 20:39:56 20:44:25 29° 264° (W) 20:48:46 437.250
AIST 2 31 May 20:45:22 20:46:07 10° 41° (NE) 20:46:51 435.215
SEEDS 31 May 20:45:59 20:50:08 71° 75° (ENE) 20:54:19 437.485
O/OREOS (USA 219) 31 May 20:51:33 20:52:12 10° 263° (W) 20:52:51 437.305
ISS 31 May 20:51:56 20:55:06 49° 324° (NW) 20:58:19 145.825
CANX-2 31 May 20:52:46 20:56:54 58° 260° (W) 21:01:05 2200.000
CUBEBUG 2 31 May 20:55:15 20:59:16 39° 73° (ENE) 21:03:12 437.445
RS-15 31 May 20:58:33 21:07:07 22° 341° (NNW) 21:15:59 29.354- 29.394
FUNcube-1 31 May 21:05:45 21:08:56 21° 69° (ENE) 21:12:05 145.935
BEESAT 2 31 May 21:11:05 21:14:35 30° 246° (WSW) 21:18:02 435.950
UWE-3 31 May 21:13:54 21:17:56 43° 73° (ENE) 21:21:55 435.000/436.395/437.385
DELFI C3 31 May 21:14:51 21:17:01 14° 66° (ENE) 21:19:11 145.870
CUTE 1.7 + AOD 2 31 May 21:19:33 21:23:19 32° 263° (W) 21:27:08 437.475
PRISM 31 May 21:20:05 21:23:59 37° 98° (E) 21:27:49 437.425
AAUSAT CUBESAT 2 31 May 21:21:17 21:25:25 79° 258° (WSW) 21:29:36 437.432
COMPASS 1 31 May 21:23:31 21:27:35 57° 260° (W) 21:31:43 437.405
HO-68 31 May 21:24:41 21:31:22 43° 261° (W) 21:38:07 435.675
PHONESAT 2.4 31 May 21:35:04 21:38:13 80° 163° (SSE) 21:41:21 2401.200-2431.200
HUMSAT D 31 May 21:35:49 21:37:03 11° 64° (ENE) 21:38:15 437.325/437.525
GONETS M04 31 May 21:40:29 21:48:53 52° 90° (E) 21:57:15
Oscar 11 31 May 21:41:36 21:45:52 69° 75° (ENE) 21:50:09 145.826/435.025
STRAND 1 31 May 21:42:40 21:46:52 26° 294° (WNW) 21:51:02 437.568
AIST 1 31 May 21:47:11 21:51:27 49° 281° (W) 21:55:44
ZACube-1 31 May 22:05:15 22:09:27 71° 259° (W) 22:13:36 437.345
CUSAT 1 31 May 22:08:29 22:15:11 36° 70° (ENE) 22:20:40 437.405
Cosmos 2499 31 May 22:14:11 22:21:07 49° 89° (E) 22:28:35 435.465 / 435.565
AIST 2 31 May 22:21:05 22:25:15 84° 57° (ENE) 22:29:24 435.215
ISS 31 May 22:30:39 22:32:11 13° 344° (NNW) 22:33:42 145.825
ESTCUBE 1 31 May 22:32:21 22:32:55 10° 62° (ENE) 22:33:29 437.505/2401.250
CUBEBUG 2 31 May 22:33:21 22:36:01 16° 267° (W) 22:38:40 437.445
FUNcube-1 31 May 22:41:24 22:45:01 28° 264° (W) 22:48:38 145.935
DANDE 31 May 22:44:19 22:52:02 40° 71° (ENE) 22:58:43 436.750
DELFI C3 31 May 22:47:46 22:51:31 40° 262° (W) 22:55:18 145.870
ANTELSAT 31 May 22:49:53 22:53:06 20° 95° (E) 22:56:21 437.575/2403.000
UWE-3 31 May 22:52:19 22:54:36 14° 268° (W) 22:56:51 435.000/436.395/437.385
PRISM 31 May 22:56:16 22:58:58 17° 294° (WNW) 23:01:40 437.425
SO-50 31 May 23:05:46 23:09:49 26° 112° (ESE) 23:13:53 436.795
HUMSAT D 31 May 23:08:10 23:12:10 56° 260° (W) 23:16:11 437.325/437.525
AISAT 31 May 23:08:21 23:11:22 18° 66° (ENE) 23:14:25 437.250
PHONESAT 2.4 31 May 23:11:55 23:15:02 60° 1° (N) 23:18:09 2401.200-2431.200
RS-15 31 May 23:17:12 23:25:59 22° 18° (NNE) 23:34:52 29.354- 29.394
GONETS M04 31 May 23:38:19 23:45:58 33° 289° (WNW) 23:53:39
UNISAT 6 31 May 23:44:32 23:48:53 85° 100° (E) 23:53:19 437.425
DX 1 31 May 23:44:48 23:48:46 35° 71° (ENE) 23:52:46 434.975-435.025
CUBEBUG 1 31 May 23:46:45 23:50:58 44° 73° (ENE) 23:55:12 437.445
50 SAT 31 May 23:48:07 23:51:37 46° 74° (ENE) 23:55:08 437.505
TIGRISAT 31 May 23:50:25 23:54:45 88° 289° (WNW) 23:59:11 435.000
CUSAT 1 31 May 23:50:44 23:57:13 36° 273° (W) 00:02:32 437.405
SPROUT 31 May 23:52:59 23:56:04 20° 67° (ENE) 23:59:10 437.525
ESTCUBE 1 01 Jun 00:04:31 00:09:02 79° 257° (WSW) 00:13:36 437.505/2401.250
VELOX 1 01 Jun 00:06:15 00:10:42 73° 75° (ENE) 00:15:10 145.980
QB50P1 01 Jun 00:07:07 00:10:34 24° 96° (E) 00:13:59 145.935-145.965
POPSAT HIP 1 01 Jun 00:07:12 00:10:38 24° 96° (E) 00:14:02 437.405
Cosmos 2499 01 Jun 00:08:13 00:14:31 30° 290° (WNW) 00:21:14 435.465 / 435.565
QB50P2 01 Jun 00:10:59 00:14:39 28° 97° (E) 00:18:18 145.880/145.840
POLYITAN 1 01 Jun 00:13:28 00:17:09 29° 97° (E) 00:20:49 437.675
NANOSAT C BR1 01 Jun 00:22:26 00:26:17 34° 98° (E) 00:30:07 145.865
UKube-1 01 Jun 00:24:34 00:28:53 80° 77° (ENE) 00:33:15 .
ANTELSAT 01 Jun 00:25:58 00:29:52 33° 289° (WNW) 00:33:50 437.575/2403.000
DANDE 01 Jun 00:27:15 00:34:52 43° 272° (W) 00:41:27 436.750
AISAT 01 Jun 00:43:19 00:47:32 40° 261° (W) 00:51:46 437.250
SO-50 01 Jun 00:45:35 00:50:08 37° 308° (NW) 00:54:42 436.795
PHONESAT 2.4 01 Jun 00:48:42 00:51:50 71° 197° (SSW) 00:54:57 2401.200-2431.200
BUGSAT 1 01 Jun 00:56:38 01:00:20 35° 98° (E) 01:04:02 437.445
DUCHIFAT 1 01 Jun 00:58:25 01:02:36 89° 70° (ENE) 01:06:47 145.980
DX 1 01 Jun 01:21:52 01:25:02 19° 266° (W) 01:28:13 434.975-435.025
SWISSCUBE 01 Jun 01:24:17 01:26:24 13° 62° (ENE) 01:28:31 437.505
CUBEBUG 1 01 Jun 01:24:49 01:27:27 15° 268° (W) 01:30:05 437.445
SPROUT 01 Jun 01:27:54 01:31:48 33° 263° (W) 01:35:42 437.525
RS-15 01 Jun 01:30:25 01:42:23 53° 49° (NE) 01:54:17 29.354- 29.394
ITUPSAT 1 01 Jun 01:32:46 01:35:12 14° 62° (ENE) 01:37:39 437.325
TISAT 1 01 Jun 01:33:31 01:37:43 73° 76° (ENE) 01:41:55 437.305
QB50P1 01 Jun 01:42:48 01:46:16 25° 291° (WNW) 01:49:42 145.935-145.965
POPSAT HIP 1 01 Jun 01:42:52 01:46:21 26° 291° (WNW) 01:49:48 437.405
ISS 01 Jun 01:44:52 01:47:19 19° 24° (NNE) 01:49:46 145.825
QB50P2 01 Jun 01:47:03 01:50:18 22° 292° (WNW) 01:53:32 145.880/145.840
POLYITAN 1 01 Jun 01:49:34 01:52:46 21° 292° (WNW) 01:55:58 437.675
BEESAT 01 Jun 01:51:40 01:55:17 22° 66° (ENE) 01:58:55 436.000
NANOSAT C BR1 01 Jun 01:58:53 02:01:45 18° 293° (WNW) 02:04:37 145.865
YUBILEINY 01 Jun 02:02:08 02:08:10 20° 65° (ENE) 02:14:09 435.215
